AEE3K LCLK-LGAV

Flight info

Callsign AEE3K
Flight time 1h 31m
Altitude 36000
Route PHA M31 GENOS DCT PEDER DCT EVENO UM601 RDS UL995 VARIX
Aircraft A321/M-SDE3FGHIRWY/LB1

Departure

Time 2026-05-05 13:16
Airport Larnaca International Airport (LCLK)

Arrival

Time 2026-05-05 14:48
Airport Athens Eleftherios Venizelos International Airport (LGAV)
Time Latitude Longitude Altitude Speed Heading
2026-05-05 12:31 34.86997 33.61111 20 ft 0 kts 225°
2026-05-05 13:04 34.87013 33.61130 22 ft 4 kts 225°
2026-05-05 13:04 34.87029 33.61156 20 ft 4 kts 251°
2026-05-05 13:04 34.87038 33.61180 25 ft 4 kts 202°
2026-05-05 13:05 34.87053 33.61178 23 ft 1 kts 135°
2026-05-05 13:05 34.87067 33.61160 21 ft 1 kts 135°
2026-05-05 13:05 34.87068 33.61160 21 ft 0 kts 135°
2026-05-05 13:09 34.87064 33.61165 21 ft 3 kts 135°
2026-05-05 13:09 34.87041 33.61192 20 ft 7 kts 135°
2026-05-05 13:09 34.87001 33.61240 20 ft 9 kts 135°
2026-05-05 13:09 34.86951 33.61300 20 ft 11 kts 135°
2026-05-05 13:10 34.86890 33.61383 18 ft 14 kts 116°
2026-05-05 13:10 34.86928 33.61485 18 ft 15 kts 45°
2026-05-05 13:10 34.87006 33.61580 19 ft 16 kts 45°
2026-05-05 13:10 34.87083 33.61675 22 ft 16 kts 45°
2026-05-05 13:11 34.87164 33.61774 22 ft 18 kts 45°
2026-05-05 13:11 34.87252 33.61882 23 ft 18 kts 45°
2026-05-05 13:11 34.87345 33.61997 20 ft 20 kts 45°
2026-05-05 13:11 34.87451 33.62126 19 ft 22 kts 45°
2026-05-05 13:12 34.87565 33.62265 16 ft 24 kts 45°
2026-05-05 13:12 34.87685 33.62412 20 ft 24 kts 45°
2026-05-05 13:12 34.87806 33.62560 19 ft 25 kts 45°
2026-05-05 13:12 34.87923 33.62703 21 ft 23 kts 45°
2026-05-05 13:13 34.88040 33.62845 20 ft 24 kts 45°
2026-05-05 13:13 34.88162 33.62993 20 ft 26 kts 45°
2026-05-05 13:13 34.88286 33.63144 18 ft 22 kts 45°
2026-05-05 13:13 34.88389 33.63269 17 ft 16 kts 44°
2026-05-05 13:14 34.88443 33.63355 18 ft 11 kts 82°
2026-05-05 13:14 34.88412 33.63423 19 ft 10 kts 132°
2026-05-05 13:14 34.88363 33.63487 20 ft 11 kts 133°
2026-05-05 13:14 34.88299 33.63513 17 ft 11 kts 201°
2026-05-05 13:15 34.88261 33.63473 16 ft 0 kts 225°
2026-05-05 13:15 34.88255 33.63466 18 ft 13 kts 225°
2026-05-05 13:15 34.87989 33.63143 19 ft 92 kts 225°
2026-05-05 13:15 34.87371 33.62390 20 ft 155 kts 225°
2026-05-05 13:16 34.86572 33.61415 561 ft 165 kts 225°
2026-05-05 13:16 34.85747 33.60407 1325 ft 169 kts 225°
2026-05-05 13:16 34.84942 33.59364 2022 ft 170 kts 229°
2026-05-05 13:16 34.84089 33.58236 2332 ft 193 kts 229°
2026-05-05 13:17 34.83130 33.56971 2607 ft 214 kts 229°
2026-05-05 13:17 34.82054 33.55564 2871 ft 240 kts 229°
2026-05-05 13:17 34.80857 33.54009 3300 ft 260 kts 228°
2026-05-05 13:17 34.79596 33.52385 4026 ft 267 kts 229°
2026-05-05 13:18 34.78314 33.50738 4883 ft 269 kts 229°
2026-05-05 13:18 34.77016 33.49080 5617 ft 271 kts 228°
2026-05-05 13:18 34.75718 33.47421 6341 ft 271 kts 228°
2026-05-05 13:18 34.74414 33.45754 7032 ft 273 kts 229°
2026-05-05 13:19 34.73100 33.44077 7737 ft 275 kts 229°
2026-05-05 13:19 34.71774 33.42384 8455 ft 278 kts 229°
2026-05-05 13:19 34.70435 33.40669 9194 ft 281 kts 230°
2026-05-05 13:19 34.69215 33.38819 9937 ft 281 kts 242°
2026-05-05 13:20 34.68396 33.36669 10492 ft 285 kts 257°
2026-05-05 13:20 34.68044 33.34264 10881 ft 294 kts 271°
2026-05-05 13:20 34.68123 33.31739 11283 ft 305 kts 276°
2026-05-05 13:20 34.68244 33.29117 11688 ft 317 kts 276°
2026-05-05 13:21 34.68360 33.26408 12132 ft 324 kts 276°
2026-05-05 13:21 34.68470 33.23662 12779 ft 327 kts 277°
2026-05-05 13:21 34.68578 33.20883 13451 ft 330 kts 277°
2026-05-05 13:21 34.68684 33.18126 14092 ft 332 kts 277°
2026-05-05 13:22 34.68793 33.15319 14704 ft 333 kts 277°
2026-05-05 13:22 34.68905 33.12501 15296 ft 335 kts 277°
2026-05-05 13:22 34.69017 33.09667 15934 ft 336 kts 277°
2026-05-05 13:22 34.69128 33.06829 16572 ft 337 kts 277°
2026-05-05 13:23 34.69238 33.03980 17201 ft 338 kts 277°
2026-05-05 13:23 34.69348 33.01129 17830 ft 338 kts 277°
2026-05-05 13:23 34.69456 32.98269 18412 ft 339 kts 277°
2026-05-05 13:23 34.69565 32.95399 18930 ft 341 kts 277°
2026-05-05 13:24 34.69674 32.92517 19433 ft 342 kts 277°
2026-05-05 13:24 34.69785 32.89617 19940 ft 344 kts 277°
2026-05-05 13:24 34.69898 32.86698 20374 ft 348 kts 277°
2026-05-05 13:24 34.70010 32.83745 20803 ft 351 kts 277°
2026-05-05 13:25 34.70119 32.80776 21279 ft 353 kts 277°
2026-05-05 13:25 34.70227 32.77783 21755 ft 355 kts 277°
2026-05-05 13:25 34.70335 32.74777 22231 ft 357 kts 277°
2026-05-05 13:25 34.70443 32.71760 22697 ft 359 kts 277°
2026-05-05 13:26 34.70551 32.68725 23152 ft 361 kts 277°
2026-05-05 13:26 34.70658 32.65670 23593 ft 363 kts 277°
2026-05-05 13:26 34.70769 32.62592 23945 ft 365 kts 276°
2026-05-05 13:26 34.70878 32.59503 24265 ft 368 kts 276°
2026-05-05 13:27 34.70986 32.56378 24608 ft 371 kts 276°
2026-05-05 13:27 34.71091 32.53239 24969 ft 373 kts 276°
2026-05-05 13:27 34.71154 32.50076 25330 ft 377 kts 271°
2026-05-05 13:27 34.70991 32.46883 25685 ft 380 kts 270°
2026-05-05 13:28 34.70822 32.43672 26053 ft 381 kts 271°
2026-05-05 13:28 34.70999 32.40482 26384 ft 377 kts 285°
2026-05-05 13:28 34.71823 32.37467 26723 ft 377 kts 292°
2026-05-05 13:28 34.72738 32.34514 27057 ft 379 kts 292°
2026-05-05 13:29 34.73690 32.31470 27365 ft 382 kts 292°
2026-05-05 13:29 34.74630 32.28480 27678 ft 385 kts 292°
2026-05-05 13:29 34.75587 32.25429 28007 ft 387 kts 292°
2026-05-05 13:29 34.76544 32.22360 28351 ft 389 kts 292°
2026-05-05 13:30 34.77502 32.19277 28677 ft 391 kts 291°
2026-05-05 13:30 34.78464 32.16175 29010 ft 393 kts 291°
2026-05-05 13:30 34.79431 32.13060 29339 ft 395 kts 291°
2026-05-05 13:30 34.80403 32.09928 29662 ft 397 kts 291°
2026-05-05 13:31 34.81378 32.06777 29968 ft 399 kts 291°
2026-05-05 13:31 34.82357 32.03607 30210 ft 402 kts 291°
2026-05-05 13:31 34.83343 32.00413 30436 ft 404 kts 291°
2026-05-05 13:31 34.84331 31.97205 30674 ft 406 kts 291°
2026-05-05 13:32 34.85323 31.93979 30888 ft 408 kts 291°
2026-05-05 13:32 34.86319 31.90740 31125 ft 409 kts 291°
2026-05-05 13:32 34.87319 31.87490 31356 ft 410 kts 291°
2026-05-05 13:32 34.88320 31.84238 31664 ft 409 kts 291°
2026-05-05 13:33 34.89319 31.80990 31965 ft 409 kts 291°
2026-05-05 13:33 34.90312 31.77752 32249 ft 409 kts 291°
2026-05-05 13:33 34.91307 31.74504 32521 ft 409 kts 291°
2026-05-05 13:33 34.92298 31.71258 32800 ft 409 kts 291°
2026-05-05 13:34 34.93286 31.68008 33074 ft 409 kts 291°
2026-05-05 13:34 34.94274 31.64761 33361 ft 408 kts 291°
2026-05-05 13:34 34.95260 31.61518 33655 ft 408 kts 291°
2026-05-05 13:34 34.96245 31.58277 33942 ft 407 kts 291°
2026-05-05 13:35 34.97227 31.55040 34192 ft 407 kts 291°
2026-05-05 13:35 34.98209 31.51806 34415 ft 407 kts 291°
2026-05-05 13:35 34.99193 31.48568 34646 ft 407 kts 291°
2026-05-05 13:35 35.00164 31.45366 34863 ft 407 kts 291°
2026-05-05 13:36 35.01145 31.42125 34983 ft 408 kts 291°
2026-05-05 13:36 35.02124 31.38881 35008 ft 408 kts 291°
2026-05-05 13:36 35.04079 31.32396 35008 ft 407 kts 291°
2026-05-05 13:37 35.06037 31.25906 35011 ft 407 kts 291°
2026-05-05 13:37 35.07996 31.19410 35010 ft 407 kts 291°
2026-05-05 13:38 35.09941 31.12910 35010 ft 408 kts 291°
2026-05-05 13:38 35.11883 31.06399 35013 ft 408 kts 291°
2026-05-05 13:39 35.13815 30.99903 35013 ft 408 kts 291°
2026-05-05 13:39 35.15426 30.94494 35004 ft 408 kts 291°
2026-05-05 13:40 35.17478 30.88035 35010 ft 407 kts 298°
2026-05-05 13:40 35.20841 30.82499 35011 ft 408 kts 312°
2026-05-05 13:41 35.24735 30.77448 35010 ft 408 kts 312°
2026-05-05 13:41 35.28623 30.72383 35010 ft 408 kts 312°
2026-05-05 13:42 35.32497 30.67300 35010 ft 408 kts 312°
2026-05-05 13:42 35.36373 30.62215 35008 ft 408 kts 311°
2026-05-05 13:43 35.40245 30.57127 35009 ft 408 kts 311°
2026-05-05 13:43 35.44111 30.52027 35007 ft 408 kts 311°
2026-05-05 13:44 35.47981 30.46932 35008 ft 408 kts 312°
2026-05-05 13:44 35.51849 30.41839 35005 ft 408 kts 312°
2026-05-05 13:45 35.55690 30.36762 35005 ft 408 kts 312°
2026-05-05 13:45 35.59551 30.31645 35005 ft 408 kts 312°
2026-05-05 13:46 35.63409 30.26522 35005 ft 408 kts 312°
2026-05-05 13:46 35.67274 30.21397 35005 ft 408 kts 312°
2026-05-05 13:47 35.71141 30.16274 35002 ft 408 kts 312°
2026-05-05 13:47 35.75000 30.11138 34993 ft 408 kts 312°
2026-05-05 13:48 35.78860 30.05992 35002 ft 409 kts 312°
2026-05-05 13:48 35.82559 30.00678 35002 ft 409 kts 303°
2026-05-05 13:49 35.84873 29.94343 35000 ft 410 kts 290°
2026-05-05 13:49 35.86683 29.87668 35000 ft 410 kts 290°
2026-05-05 13:50 35.88502 29.80994 34989 ft 410 kts 290°
2026-05-05 13:50 35.90312 29.74321 34997 ft 410 kts 290°
2026-05-05 13:51 35.92114 29.67643 34997 ft 410 kts 290°
2026-05-05 13:51 35.93905 29.60962 34997 ft 410 kts 290°
2026-05-05 13:52 35.95693 29.54286 34995 ft 406 kts 290°
2026-05-05 13:52 35.97462 29.47717 34997 ft 402 kts 290°
2026-05-05 13:53 35.99221 29.41169 34997 ft 402 kts 290°
2026-05-05 13:53 36.00977 29.34621 34994 ft 401 kts 290°
2026-05-05 13:54 36.02721 29.28108 34995 ft 402 kts 290°
2026-05-05 13:54 36.04475 29.21554 34994 ft 402 kts 290°
2026-05-05 13:55 36.06224 29.14981 35001 ft 402 kts 290°
2026-05-05 13:55 36.07963 29.08398 35008 ft 403 kts 290°
2026-05-05 13:56 36.09706 29.01818 35007 ft 403 kts 290°
2026-05-05 13:56 36.11450 28.95228 35001 ft 403 kts 290°
2026-05-05 13:57 36.13186 28.88637 35007 ft 403 kts 290°
2026-05-05 13:57 36.14918 28.82041 35009 ft 403 kts 290°
2026-05-05 13:58 36.16634 28.75484 35011 ft 403 kts 290°
2026-05-05 13:58 36.18362 28.68888 35012 ft 403 kts 290°
2026-05-05 13:59 36.20949 28.58988 35005 ft 402 kts 290°
2026-05-05 14:00 36.23230 28.50208 35013 ft 402 kts 290°
2026-05-05 14:00 36.25222 28.42488 35019 ft 402 kts 290°
2026-05-05 14:01 36.26915 28.35892 35016 ft 402 kts 290°
2026-05-05 14:01 36.28606 28.29292 35021 ft 401 kts 290°
2026-05-05 14:02 36.30297 28.22703 35025 ft 401 kts 290°
2026-05-05 14:02 36.31971 28.16153 35030 ft 401 kts 290°
2026-05-05 14:03 36.33650 28.09558 35024 ft 401 kts 290°
2026-05-05 14:03 36.35791 28.03211 35011 ft 399 kts 296°
2026-05-05 14:04 36.38047 27.96934 35022 ft 398 kts 296°
2026-05-05 14:04 36.40294 27.90666 35030 ft 397 kts 296°
2026-05-05 14:05 36.42536 27.84393 35030 ft 397 kts 296°
2026-05-05 14:05 36.44773 27.78125 35031 ft 397 kts 296°
2026-05-05 14:06 36.47004 27.71851 35034 ft 397 kts 296°
2026-05-05 14:06 36.49240 27.65580 35049 ft 397 kts 296°
2026-05-05 14:07 36.51461 27.59344 35051 ft 397 kts 296°
2026-05-05 14:07 36.53684 27.53068 35047 ft 397 kts 296°
2026-05-05 14:08 36.55900 27.46786 35043 ft 397 kts 296°
2026-05-05 14:08 36.58117 27.40497 35047 ft 397 kts 296°
2026-05-05 14:09 36.60332 27.34211 35056 ft 396 kts 296°
2026-05-05 14:09 36.62540 27.27922 35059 ft 396 kts 296°
2026-05-05 14:10 36.64745 27.21632 35066 ft 396 kts 296°
2026-05-05 14:10 36.66944 27.15332 35064 ft 396 kts 296°
2026-05-05 14:11 36.69139 27.09030 35073 ft 396 kts 296°
2026-05-05 14:11 36.71327 27.02735 35076 ft 396 kts 296°
2026-05-05 14:12 36.73498 26.96485 35077 ft 395 kts 296°
2026-05-05 14:12 36.75681 26.90191 35077 ft 395 kts 296°
2026-05-05 14:13 36.77862 26.83899 35066 ft 395 kts 296°
2026-05-05 14:13 36.80028 26.77608 35074 ft 395 kts 296°
2026-05-05 14:14 36.82190 26.71311 35078 ft 394 kts 296°
2026-05-05 14:14 36.84348 26.65019 35078 ft 394 kts 296°
2026-05-05 14:15 36.86508 26.58731 35079 ft 394 kts 296°
2026-05-05 14:15 36.88666 26.52433 35085 ft 394 kts 296°
2026-05-05 14:16 36.90818 26.46150 35089 ft 393 kts 296°
2026-05-05 14:16 36.92959 26.39870 35091 ft 393 kts 296°
2026-05-05 14:17 36.95089 26.33580 35089 ft 392 kts 296°
2026-05-05 14:17 36.97209 26.27292 35084 ft 392 kts 296°
2026-05-05 14:18 36.99333 26.21010 35080 ft 392 kts 296°
2026-05-05 14:18 37.01453 26.14780 35086 ft 391 kts 296°
2026-05-05 14:19 37.03585 26.08513 35100 ft 391 kts 296°
2026-05-05 14:19 37.05706 26.02232 35087 ft 392 kts 296°
2026-05-05 14:20 37.07822 25.95948 35096 ft 392 kts 296°
2026-05-05 14:20 37.09942 25.89664 35085 ft 392 kts 296°
2026-05-05 14:21 37.11002 25.86519 34848 ft 391 kts 296°
2026-05-05 14:21 37.12060 25.83373 34562 ft 391 kts 296°
2026-05-05 14:21 37.13114 25.80233 34280 ft 391 kts 296°
2026-05-05 14:21 37.14165 25.77096 33983 ft 390 kts 296°
2026-05-05 14:22 37.15212 25.73965 33655 ft 388 kts 296°
2026-05-05 14:22 37.16251 25.70854 33325 ft 386 kts 296°
2026-05-05 14:22 37.17285 25.67758 33010 ft 384 kts 296°
2026-05-05 14:22 37.18317 25.64667 32693 ft 382 kts 296°
2026-05-05 14:23 37.19340 25.61600 32362 ft 380 kts 296°
2026-05-05 14:23 37.20353 25.58554 32056 ft 378 kts 296°
2026-05-05 14:23 37.21362 25.55517 31696 ft 375 kts 296°
2026-05-05 14:23 37.22365 25.52502 31341 ft 373 kts 296°
2026-05-05 14:24 37.23345 25.49537 31010 ft 372 kts 296°
2026-05-05 14:24 37.24316 25.46539 30659 ft 370 kts 296°
2026-05-05 14:24 37.25273 25.43545 30315 ft 368 kts 295°
2026-05-05 14:24 37.26222 25.40565 29898 ft 366 kts 296°
2026-05-05 14:25 37.27167 25.37605 29452 ft 364 kts 296°
2026-05-05 14:25 37.28086 25.34657 29010 ft 362 kts 294°
2026-05-05 14:25 37.28929 25.31683 28551 ft 361 kts 293°
2026-05-05 14:25 37.29723 25.28699 28121 ft 359 kts 292°
2026-05-05 14:26 37.30492 25.25725 27703 ft 357 kts 292°
2026-05-05 14:26 37.31257 25.22760 27286 ft 355 kts 292°
2026-05-05 14:26 37.32023 25.19819 26883 ft 353 kts 292°
2026-05-05 14:26 37.32792 25.16894 26476 ft 352 kts 292°
2026-05-05 14:27 37.33562 25.13988 26077 ft 350 kts 293°
2026-05-05 14:27 37.34072 25.12074 25824 ft 348 kts 293°
2026-05-05 14:27 37.34842 25.09194 25430 ft 347 kts 293°
2026-05-05 14:27 37.35674 25.06366 25047 ft 342 kts 299°
2026-05-05 14:28 37.36899 25.03840 24671 ft 336 kts 310°
2026-05-05 14:28 37.38502 25.01731 24298 ft 333 kts 321°
2026-05-05 14:28 37.40366 25.00055 23963 ft 326 kts 326°
2026-05-05 14:28 37.42236 24.98476 23584 ft 321 kts 326°
2026-05-05 14:29 37.44071 24.96914 23155 ft 315 kts 326°
2026-05-05 14:29 37.45868 24.95380 22752 ft 310 kts 326°
2026-05-05 14:29 37.47637 24.93875 22364 ft 304 kts 326°
2026-05-05 14:29 37.49376 24.92396 21977 ft 299 kts 326°
2026-05-05 14:30 37.51095 24.90935 21590 ft 297 kts 326°
2026-05-05 14:30 37.52807 24.89477 21212 ft 296 kts 327°
2026-05-05 14:30 37.54512 24.88023 20818 ft 296 kts 327°
2026-05-05 14:30 37.56214 24.86573 20426 ft 295 kts 327°
2026-05-05 14:31 37.57910 24.85132 20044 ft 294 kts 327°
2026-05-05 14:31 37.59605 24.83687 19652 ft 293 kts 327°
2026-05-05 14:31 37.61292 24.82246 19261 ft 292 kts 327°
2026-05-05 14:31 37.62972 24.80809 18874 ft 292 kts 327°
2026-05-05 14:32 37.64653 24.79373 18487 ft 291 kts 327°
2026-05-05 14:32 37.66326 24.77943 18066 ft 290 kts 327°
2026-05-05 14:32 37.67993 24.76517 17671 ft 289 kts 328°
2026-05-05 14:32 37.69657 24.75095 17270 ft 288 kts 328°
2026-05-05 14:33 37.71292 24.73695 16907 ft 287 kts 328°
2026-05-05 14:33 37.72943 24.72280 16527 ft 286 kts 328°
2026-05-05 14:33 37.74607 24.70853 16145 ft 285 kts 328°
2026-05-05 14:33 37.76222 24.69466 15774 ft 284 kts 328°
2026-05-05 14:34 37.77854 24.68066 15397 ft 283 kts 328°
2026-05-05 14:34 37.79481 24.66673 15028 ft 282 kts 328°
2026-05-05 14:34 37.81101 24.65286 14664 ft 281 kts 328°
2026-05-05 14:34 37.82718 24.63900 14286 ft 280 kts 328°
2026-05-05 14:35 37.84327 24.62516 13924 ft 279 kts 328°
2026-05-05 14:35 37.85929 24.61132 13529 ft 278 kts 328°
2026-05-05 14:35 37.87524 24.59754 13158 ft 277 kts 328°
2026-05-05 14:35 37.89111 24.58383 12787 ft 276 kts 328°
2026-05-05 14:36 37.90692 24.57022 12440 ft 274 kts 328°
2026-05-05 14:36 37.92266 24.55669 12087 ft 272 kts 328°
2026-05-05 14:36 37.93828 24.54321 11714 ft 271 kts 328°
2026-05-05 14:36 37.95381 24.52979 11353 ft 270 kts 328°
2026-05-05 14:37 37.96930 24.51640 10987 ft 268 kts 328°
2026-05-05 14:37 37.98464 24.50313 10634 ft 266 kts 327°
2026-05-05 14:37 38.00017 24.48963 10284 ft 273 kts 327°
2026-05-05 14:37 38.01523 24.47525 9993 ft 272 kts 316°
2026-05-05 14:38 38.02745 24.45695 9675 ft 269 kts 311°
2026-05-05 14:38 38.03877 24.43851 9361 ft 262 kts 310°
2026-05-05 14:38 38.04982 24.42046 9047 ft 256 kts 310°
2026-05-05 14:38 38.06061 24.40277 8740 ft 251 kts 310°
2026-05-05 14:39 38.07117 24.38548 8415 ft 246 kts 310°
2026-05-05 14:39 38.08169 24.36849 8111 ft 244 kts 310°
2026-05-05 14:39 38.09216 24.35191 7778 ft 244 kts 310°
2026-05-05 14:39 38.10275 24.33517 7427 ft 243 kts 310°
2026-05-05 14:40 38.11333 24.31848 7080 ft 242 kts 310°
2026-05-05 14:40 38.12389 24.30184 6740 ft 242 kts 310°
2026-05-05 14:40 38.13424 24.28500 6397 ft 242 kts 304°
2026-05-05 14:40 38.13949 24.26481 6058 ft 244 kts 279°
2026-05-05 14:41 38.14071 24.24333 5753 ft 243 kts 276°
2026-05-05 14:41 38.14144 24.22195 5449 ft 241 kts 275°
2026-05-05 14:41 38.14215 24.20096 5175 ft 234 kts 275°
2026-05-05 14:41 38.14288 24.18051 4864 ft 229 kts 275°
2026-05-05 14:42 38.14025 24.16090 4561 ft 226 kts 251°
2026-05-05 14:42 38.13353 24.14299 4259 ft 222 kts 246°
2026-05-05 14:42 38.12652 24.12572 3944 ft 218 kts 245°
2026-05-05 14:42 38.11926 24.10907 3650 ft 215 kts 234°
2026-05-05 14:43 38.10813 24.09684 3438 ft 208 kts 218°
2026-05-05 14:43 38.09672 24.08602 3235 ft 201 kts 219°
2026-05-05 14:43 38.08573 24.07555 3074 ft 196 kts 219°
2026-05-05 14:43 38.07491 24.06519 2945 ft 194 kts 219°
2026-05-05 14:44 38.06406 24.05482 2818 ft 195 kts 219°
2026-05-05 14:44 38.05320 24.04444 2740 ft 195 kts 219°
2026-05-05 14:44 38.04232 24.03404 2581 ft 194 kts 218°
2026-05-05 14:44 38.03177 24.02398 2350 ft 186 kts 218°
2026-05-05 14:45 38.02191 24.01456 2129 ft 176 kts 218°
2026-05-05 14:45 38.01221 24.00530 1892 ft 172 kts 217°
2026-05-05 14:45 38.00273 23.99625 1672 ft 165 kts 217°
2026-05-05 14:45 37.99392 23.98785 1450 ft 153 kts 217°
2026-05-05 14:46 37.98560 23.97992 1260 ft 147 kts 216°
2026-05-05 14:46 37.97758 23.97227 1074 ft 144 kts 216°
2026-05-05 14:46 37.96962 23.96471 896 ft 141 kts 215°
2026-05-05 14:46 37.96193 23.95748 740 ft 137 kts 217°
2026-05-05 14:47 37.95444 23.95028 507 ft 135 kts 217°
2026-05-05 14:47 37.94704 23.94321 358 ft 134 kts 218°
2026-05-05 14:47 37.94000 23.93650 295 ft 113 kts 217°
2026-05-05 14:47 37.93507 23.93182 296 ft 64 kts 216°
2026-05-05 14:48 37.93218 23.92916 292 ft 42 kts 212°
2026-05-05 14:48 37.93029 23.92833 293 ft 17 kts 188°
2026-05-05 14:48 37.92946 23.92836 299 ft 11 kts 155°
2026-05-05 14:48 37.92941 23.92914 300 ft 10 kts 57°
2026-05-05 14:49 37.93000 23.92980 299 ft 12 kts 37°
2026-05-05 14:49 37.93036 23.93014 300 ft 1 kts 37°
2026-05-05 14:49 37.93050 23.93027 300 ft 4 kts 35°
2026-05-05 14:49 37.93079 23.93052 299 ft 7 kts 34°
2026-05-05 14:50 37.93126 23.93097 303 ft 10 kts 38°
2026-05-05 14:50 37.93192 23.93161 300 ft 13 kts 37°
2026-05-05 14:50 37.93269 23.93236 301 ft 15 kts 38°
2026-05-05 14:50 37.93356 23.93318 301 ft 16 kts 36°
2026-05-05 14:51 37.93427 23.93426 300 ft 17 kts 94°
2026-05-05 14:51 37.93365 23.93549 301 ft 17 kts 126°
2026-05-05 14:51 37.93289 23.93676 303 ft 19 kts 127°
2026-05-05 14:51 37.93206 23.93814 301 ft 20 kts 127°
2026-05-05 14:52 37.93120 23.93959 303 ft 15 kts 127°
2026-05-05 14:52 37.93105 23.94060 302 ft 13 kts 53°
2026-05-05 14:52 37.93183 23.94137 303 ft 15 kts 36°
2026-05-05 14:52 37.93272 23.94224 302 ft 16 kts 49°
2026-05-05 14:53 37.93243 23.94356 303 ft 18 kts 126°
2026-05-05 14:53 37.93169 23.94480 302 ft 14 kts 126°
2026-05-05 14:53 37.93202 23.94582 302 ft 15 kts 37°
2026-05-05 14:53 37.93291 23.94664 302 ft 17 kts 38°
2026-05-05 14:54 37.93393 23.94762 302 ft 19 kts 37°
2026-05-05 14:54 37.93504 23.94869 302 ft 21 kts 37°
2026-05-05 14:54 37.93625 23.94983 301 ft 22 kts 37°
2026-05-05 14:54 37.93727 23.95081 301 ft 16 kts 37°
2026-05-05 14:55 37.93782 23.95129 302 ft 6 kts 13°
2026-05-05 14:55 37.93817 23.95091 301 ft 8 kts 307°
2026-05-05 14:55 37.93834 23.95063 301 ft 0 kts 308°